TimeMDT,TemperatureF,Dew PointF,Humidity,Sea Level PressureIn,VisibilityMPH,Wind Direction,Wind SpeedMPH,Gust SpeedMPH,PrecipitationIn,Events,Conditions,WindDirDegrees,DateUTC
12:53 AM,25.0,23.0,92,30.14,10.0,South,9.2,-,N/A,,Clear,170,2013-03-31 06:53:00
1:53 AM,30.0,27.0,88,30.11,10.0,South,10.4,-,N/A,,Clear,180,2013-03-31 07:53:00
2:53 AM,30.0,26.1,85,30.08,10.0,Calm,Calm,-,N/A,,Clear,0,2013-03-31 08:53:00
3:53 AM,30.9,26.1,82,30.03,10.0,South,15.0,-,N/A,,Clear,170,2013-03-31 09:53:00
4:53 AM,36.0,28.0,73,29.99,10.0,South,18.4,-,N/A,,Clear,180,2013-03-31 10:53:00
5:53 AM,35.1,27.0,72,29.97,10.0,South,15.0,-,N/A,,Clear,180,2013-03-31 11:53:00
6:53 AM,35.1,25.0,67,29.97,10.0,SSW,18.4,-,N/A,,Clear,210,2013-03-31 12:53:00
7:53 AM,42.1,27.0,55,29.98,10.0,WSW,11.5,-,N/A,,Clear,240,2013-03-31 13:53:00
8:53 AM,46.9,27.0,46,29.99,10.0,West,13.8,-,N/A,,Clear,270,2013-03-31 14:53:00
9:53 AM,53.1,25.0,34,30.00,10.0,WNW,18.4,-,N/A,,Clear,290,2013-03-31 15:53:00
10:53 AM,53.1,25.0,34,30.00,10.0,NW,19.6,28.8,N/A,,Clear,320,2013-03-31 16:53:00
11:53 AM,55.9,25.0,30,30.01,10.0,NW,23.0,31.1,N/A,,Clear,320,2013-03-31 17:53:00
12:53 PM,55.9,25.0,30,30.00,10.0,NNW,20.7,29.9,N/A,,Overcast,340,2013-03-31 18:53:00
1:53 PM,57.9,24.1,27,29.99,10.0,NW,26.5,38.0,N/A,,Mostly Cloudy,320,2013-03-31 19:53:00
2:53 PM,55.9,27.0,33,30.01,10.0,North,25.3,29.9,N/A,,Overcast,350,2013-03-31 20:53:00
3:53 PM,54.0,26.1,34,30.02,10.0,NNW,27.6,35.7,N/A,,Unknown,330,2013-03-31 21:53:00
4:53 PM,54.0,25.0,33,30.01,10.0,North,20.7,-,N/A,,Mostly Cloudy,360,2013-03-31 22:53:00
5:53 PM,50.0,26.1,39,30.06,10.0,North,18.4,24.2,N/A,,Clear,10,2013-03-31 23:53:00
6:53 PM,44.1,24.1,45,30.09,10.0,NNE,16.1,-,N/A,,Clear,20,2013-04-01 00:53:00
7:53 PM,37.9,23.0,55,30.12,10.0,North,9.2,-,N/A,,Clear,10,2013-04-01 01:53:00
8:53 PM,36.0,24.1,62,30.15,10.0,NE,11.5,17.3,N/A,,Clear,50,2013-04-01 02:53:00
9:53 PM,33.1,25.0,72,30.16,10.0,NE,10.4,-,N/A,,Clear,40,2013-04-01 03:53:00
10:53 PM,28.0,23.0,81,30.18,10.0,Calm,Calm,-,N/A,,Scattered Clouds,0,2013-04-01 04:53:00
11:53 PM,23.0,19.9,88,30.18,10.0,Calm,Calm,-,N/A,,Clear,0,2013-04-01 05:53:00